Flag for U.S.A. Weather past 2 weeks in Corvallis, Oregon, U.S.A.

Now
48 °F

Clear.


Feels Like: 44 °F
Forecast: 42 / 72 °F
Wind: 9 mph from Northwest

Location: Corvallis Municipal

Current Time: Apr 18, 2015 at 3:05:31 AM

Latest Report: Apr 18, 2015 at 2:35 AM


Visibility: 10 mi

Pressure: 30.27 "Hg

Humidity: 87%

Dew point: 45 °F

Location of CorvallisLocation

Historic Weather in Corvallis — Graph

°F

Corvallis temperature yesterday

Maximum temperature yesterday: 77 °F (at 4:35 PM)
Minimum temperature yesterday: 39 °F (at 4:15 AM)
Average temperature yesterday: 56 °F

Past Weeks' High & Low Weather Summary

 TemperatureHumidityPressure
High77 °F (Apr 17, 4:35 PM)100% (Apr 4, 8:35 AM)30.58 "Hg (Apr 4, 8:35 AM)
Low34 °F (Apr 4, 4:35 AM)32% (Apr 9, 5:35 PM)29.69 "Hg (Apr 5, 3:15 PM)
Average47 °F78%30.10 "Hg
* Reported Apr 3 1:15 AM — Apr 18 1:55 AM, Corvallis, Weather by CustomWeather, © 2015

Note: Actual official high and low records may vary slightly from our data, if they occured in-between our weather recording intervals... More about our weather records

Advertising

Corvallis weather history for previous 24 hours

 ConditionsComfort  
Time TempWeatherWind HumidityBarometerVisibility
1:55 AM
Sat, Apr 18
48 °FClear.10 mph87%30.26 "Hg10 mi
1:35 AM48 °FClear.8 mph87%30.27 "Hg10 mi
1:15 AM48 °FClear.9 mph87%30.27 "Hg10 mi
12:55 AM48 °FClear.8 mph87%30.27 "Hg10 mi
12:35 AM48 °FClear.6 mph87%30.26 "Hg10 mi
12:15 AM48 °FClear.6 mph87%30.27 "Hg10 mi
11:55 PM
Fri, Apr 17
48 °FClear.6 mph87%30.26 "Hg10 mi
11:35 PM50 °FClear.6 mph82%30.26 "Hg10 mi
11:15 PM52 °FClear.6 mph77%30.26 "Hg10 mi
10:55 PM52 °FClear.9 mph82%30.25 "Hg10 mi
10:15 PM54 °FClear.12 mph77%30.24 "Hg10 mi
9:55 PM54 °FClear.14 mph77%30.23 "Hg10 mi
9:35 PM55 °FClear.15 mph67%30.23 "Hg10 mi
9:15 PM55 °FClear.16 mph67%30.22 "Hg10 mi
8:55 PM57 °FSunny.16 mph67%30.20 "Hg10 mi
8:15 PM57 °FSunny.12 mph67%30.18 "Hg10 mi
7:55 PM61 °FSunny.13 mph59%30.18 "Hg10 mi
7:35 PM64 °FSunny.13 mph56%30.17 "Hg10 mi
7:15 PM66 °FSunny.13 mph52%30.17 "Hg10 mi
6:55 PM68 °FSunny.9 mph53%30.17 "Hg10 mi
6:35 PM70 °FSunny.12 mph50%30.17 "Hg10 mi
6:15 PM72 °FSunny.9 mph47%30.18 "Hg10 mi
5:55 PM72 °FSunny.10 mph47%30.18 "Hg10 mi
5:35 PM73 °FSunny.10 mph44%30.18 "Hg10 mi
5:15 PM73 °FSunny.9 mph47%30.18 "Hg10 mi
4:55 PM75 °FSunny.No wind36%30.18 "Hg10 mi
4:35 PM77 °FSunny.5 mph36%30.18 "Hg10 mi
4:15 PM75 °FSunny.6 mph36%30.18 "Hg10 mi
3:55 PM75 °FSunny.6 mph36%30.18 "Hg10 mi
3:35 PM75 °FSunny.8 mph39%30.19 "Hg10 mi
3:15 PM73 °FSunny.3 mph38%30.19 "Hg10 mi
2:55 PM73 °FSunny.5 mph41%30.20 "Hg10 mi
2:35 PM72 °FSunny.6 mph41%30.21 "Hg10 mi
2:15 PM72 °FSunny.5 mph41%30.21 "Hg10 mi
1:55 PM70 °FSunny.No wind40%30.22 "Hg10 mi
1:35 PM70 °FSunny.7 mph43%30.23 "Hg10 mi
1:15 PM68 °FSunny.3 mph43%30.23 "Hg10 mi
12:55 PM68 °FSunny.No wind46%30.24 "Hg10 mi
12:35 PM66 °FSunny.No wind43%30.24 "Hg10 mi
12:15 PM64 °FSunny.5 mph52%30.25 "Hg10 mi
11:55 AM64 °FSunny.3 mph49%30.25 "Hg10 mi
11:35 AM63 °FSunny.3 mph49%30.25 "Hg10 mi
11:15 AM63 °FSunny.5 mph52%30.25 "Hg10 mi
10:55 AM63 °FSunny.3 mph49%30.25 "Hg10 mi
10:35 AM63 °FSunny.No wind52%30.25 "Hg8 mi
10:15 AM59 °FSunny.5 mph59%30.25 "Hg10 mi
9:55 AM55 °FSunny.6 mph72%30.24 "Hg10 mi
9:35 AM55 °FSunny.7 mph72%30.23 "Hg10 mi
9:15 AM54 °FSunny.7 mph77%30.23 "Hg10 mi
8:55 AM52 °FSunny.9 mph82%30.23 "Hg10 mi
8:35 AM48 °FSunny.3 mph87%30.23 "Hg10 mi
8:15 AM46 °FSunny.No wind87%30.22 "Hg10 mi
7:55 AM45 °FSunny.No wind93%30.22 "Hg10 mi
7:35 AM43 °FSunny.No wind87%30.21 "Hg10 mi
7:15 AM39 °FClear.No wind93%30.20 "Hg10 mi
6:55 AM39 °FClear.3 mph87%30.20 "Hg10 mi
6:35 AM39 °FClear.No wind87%30.19 "Hg10 mi
6:15 AM41 °FClear.No wind93%30.19 "Hg10 mi
5:55 AM43 °FClear.5 mph87%30.19 "Hg10 mi
5:35 AM41 °FClear.3 mph87%30.18 "Hg10 mi
5:15 AM39 °FClear.3 mph93%30.18 "Hg10 mi
4:55 AM39 °FClear.3 mph93%30.17 "Hg10 mi
4:35 AM39 °FClear.3 mph87%30.18 "Hg10 mi
4:15 AM39 °FClear.5 mph93%30.18 "Hg10 mi
3:55 AM41 °FClear.3 mph87%30.17 "Hg10 mi
3:35 AM45 °FClear.No wind81%30.18 "Hg10 mi
3:15 AM46 °FClear.No wind87%30.18 "Hg10 mi
Weather by CustomWeather, © 2015

See weather overviewHow to use our weather pages